Regional Weather Roundup
Issued by NWS

Home | Current Version | Previous Version | Text Only | Print | Product List | Glossary Off
Versions: 1 2 3 4 5 6 7 8 9 10 11 12 13 14 15 16 17 18 19 20 21 22 23 24 25 26 27 28 29 30 31 32 33 34 35 36 37 38 39 40 41 42 43 44 45 46 47 48 49 50

000
ASUS43 KOAX 222010
RWRNE

WEATHER ROUNDUP FOR NEBRASKA
NATIONAL WEATHER SERVICE OMAHA NE
300 PM CDT FRI MAY 22 2015

NOTES: SATELLITE DATA IS BEING USED TO AUGMENT CLOUD COVER ABOVE
       12000 FEET.
       "FAIR" INDICATES FEW OR NO CLOUDS BELOW 12,000 FEET WITH NO
       SIGNIFICANT WEATHER AND/OR OBSTRUCTIONS TO VISIBILITY.

  * THESE STATIONS DO NOT REPORT WEATHER SUCH AS RAIN...SNOW OR FOG.

NEZ001>004-019>022-054>056-222100-
NEBRASKA PANHANDLE

CITY           SKY/WX    TMP DP  RH WIND       PRES   REMARKS
SCOTTSBLUFF    CLOUDY    51  32  48 SE17G24   30.06F
ALLIANCE       CLOUDY    51  44  77 SE20      30.08F
CHADRON        LGT RAIN  53  43  68 SE14      30.09R
KIMBALL          N/A    N/A N/A N/A MISG        N/A
SIDNEY         LGT RAIN  48  47  96 E18       30.06S FOG
$$

NEZ057>060-069>072-079>082-222100-
SOUTHWEST NEBRASKA

CITY           SKY/WX    TMP DP  RH WIND       PRES   REMARKS
NORTH PLATTE   LGT RAIN  48  45  89 E17G25    30.15F
IMPERIAL       LGT RAIN  49  47  93 SE17G25   30.08F
LEXINGTON      LGT RAIN  50  46  87 E12       30.18F
MCCOOK         LGT RAIN  50  48  93 E13       30.12F FOG
OGALLALA       CLOUDY    48  46  91 E16G24    30.10F
$$

NEZ005>010-023>029-035>040-094-222100-
NORTH CENTRAL NEBRASKA

CITY           SKY/WX    TMP DP  RH WIND       PRES   REMARKS
VALENTINE      CLOUDY    56  40  55 S26G32    30.17R
AINSWORTH      CLOUDY    54  43  66 S20G26    30.20R
BROKEN BOW     LGT RAIN  51  45  79 SE15G24   30.20F
O`NEILL        CLOUDY    62  43  50 S16G22    30.21S
ORD            LGT RAIN  51  46  83 SE7       30.22F
THEDFORD       LGT RAIN  49  46  88 SE22G29   30.18F
$$

NEZ041-046>049-061>064-073>077-083>087-222100-
SOUTH CENTRAL NEBRASKA

CITY           SKY/WX    TMP DP  RH WIND       PRES   REMARKS
GRAND ISLAND   CLOUDY    57  45  64 E8        30.22F
AURORA         CLOUDY    60  44  56 E9        30.20F
HASTINGS       CLOUDY    56  49  77 SE7       30.19F
HEBRON         CLOUDY    60  44  54 SE12      30.21S
HOLDREGE       LGT RAIN  50  46  88 E14       30.17F
KEARNEY *      CLOUDY    54  45  71 E10       30.20F
YORK           CLOUDY    59  48  67 E12       30.22F
$$

NEZ011>018-030>034-042>045-222100-
NORTHEAST NEBRASKA

CITY           SKY/WX    TMP DP  RH WIND       PRES   REMARKS
NORFOLK        CLOUDY    64  41  42 S18G28    30.23S
ALBION         LGT RAIN  53  44  71 SE5       30.25F
BLAIR          CLOUDY    67  40  36 S14       30.23S
COLUMBUS *     CLOUDY    59  43  55 SE6       30.27R
FREMONT        LGT RAIN  61  44  53 SE14G24   30.26R
TEKAMAH        CLOUDY    72  39  30 S12       30.21F
WAYNE          CLOUDY    67  40  37 S13       30.22S
$$

NEZ050>053-065>068-078-088>093-222100-
SOUTHEAST NEBRASKA

CITY           SKY/WX    TMP DP  RH WIND       PRES   REMARKS
LINCOLN        CLOUDY    65  48  54 SE8       30.24F
OMAHA EPPLEY   CLOUDY    68  39  34 S13       30.23R
BEATRICE       CLOUDY    63  46  54 SE9       30.22F
FALLS CITY     CLOUDY    63  47  55 S6        30.24S
NEBRASKA CITY  CLOUDY    62  42  47 S7        30.25S
PLATTSMOUTH    CLOUDY    61  51  68 S6        30.24F
$$

NEZ044-045-051>053-067-222100-
OMAHA AREA

CITY           SKY/WX    TMP DP  RH WIND       PRES   REMARKS
OMAHA EPPLEY   CLOUDY    68  39  34 S13       30.23R
BLAIR          CLOUDY    67  40  36 S14       30.23S
FREMONT        LGT RAIN  61  44  53 SE14G24   30.26R
MILLARD        LGT RAIN  62  50  64 NE6       30.25R
OFFUTT AFB     CLOUDY    62  51  67 SW6       30.23S
PLATTSMOUTH    CLOUDY    61  51  68 S6        30.24F
WAHOO          CLOUDY    62  50  65 SE3       30.24S
$$


USA.gov is the U.S. government's official web portal to all federal, state and local government web resources and services.